Weather History for The Dalles, OR

Change the Weather History Date:

Thursday, November 10, 2011

  Actual Average Record
Temperature  
Mean Temperature 40 °F -  
Max Temperature 52 °F 52 °F 67 °F (1967)
Min Temperature 28 °F 36 °F 22 °F (1986)
Degree Days  
Heating Degree Days 25    
Moisture  
Dew Point 29 °F    
Average Humidity 71    
Maximum Humidity 93    
Minimum Humidity 45    
Precipitation  
Precipitation 0.00 in - - ()
Sea Level Pressure  
Sea Level Pressure 30.15 in    
Wind  
Wind Speed 0 mph (SE)    
Max Wind Speed 5 mph    
Max Gust Speed -    
Visibility 10 miles    
Events      
Averages and records for this station are not official NWS values.
T = Trace of Precipitation, MM = Missing Value Source: NWS Daily Summary

Daily Weather History Graph

Daily Weather History Graph

Search for Another Location

Airport:

Trip Planner

Search our weather history database for the weather conditions in past years. The results will help you decide how hot, cold, wet, or windy it might be!

Date:

Astronomy

Nov. 10, 2011 Rise Set
Actual Time 6:56 AM PST 4:39 PM PST
Civil Twilight 6:25 AM PST 5:11 PM PST
Nautical Twilight 5:49 AM PST 5:47 PM PST
Astronomical Twilight 5:14 AM PST 6:21 PM PST
Moon 4:27 PM PST (11/10) 6:56 AM PST (11/10)
Length of Visible Light 10h 46m
Length of Day
9h 42m
Full, 100% of the Moon is Illuminated
Nov 10
Full
Nov 10
Full
Nov 18
Last Quarter
Nov 24
New
Dec 2
First Quarter

Hourly Weather History & Observations

Time (PST) Temp. Windchill Dew Point Humidity Pressure Visibility Wind Dir Wind Speed Gust Speed Precip Events Conditions
2:53 AM 34.0 °F - 28.0 °F 79% 30.27 in 10.0 mi Calm Calm - N/A   Clear
3:53 AM 32.0 °F - 27.0 °F 82% 30.26 in 10.0 mi Calm Calm - N/A   Clear
4:53 AM 32.0 °F - 26.1 °F 79% 30.26 in 10.0 mi Calm Calm - N/A   Clear
5:53 AM 30.0 °F 25.2 °F 26.1 °F 85% 30.25 in 10.0 mi East 4.6 mph - N/A   Clear
6:53 AM 28.0 °F - 25.0 °F 88% 30.25 in 10.0 mi Calm Calm - N/A   Clear
7:34 AM 28.4 °F - 26.6 °F 93% 30.25 in 8.0 mi Calm Calm - N/A   Partly Cloudy
7:53 AM 32.0 °F - 28.0 °F 85% 30.26 in 10.0 mi Calm Calm - N/A   Partly Cloudy
8:53 AM 36.0 °F - 30.0 °F 79% 30.25 in 9.0 mi Calm Calm - N/A   Clear
9:53 AM 39.9 °F - 32.0 °F 73% 30.24 in 10.0 mi Calm Calm - N/A   Clear
10:53 AM 45.0 °F - 32.0 °F 60% 30.22 in 10.0 mi Calm Calm - N/A   Clear
11:53 AM 48.0 °F - 30.9 °F 52% 30.18 in 10.0 mi Calm Calm - N/A   Clear
12:53 PM 51.1 °F - 32.0 °F 48% 30.14 in 10.0 mi Calm Calm - N/A   Clear
1:53 PM 52.0 °F - 32.0 °F 47% 30.10 in 10.0 mi WSW 3.5 mph - N/A   Clear
2:53 PM 52.0 °F - 30.9 °F 45% 30.07 in 10.0 mi Calm Calm - N/A   Clear
3:53 PM 51.1 °F - 32.0 °F 48% 30.06 in 10.0 mi Calm Calm - N/A   Clear
4:53 PM 46.0 °F - 30.9 °F 56% 30.05 in 10.0 mi Calm Calm - N/A   Clear
5:53 PM 43.0 °F - 32.0 °F 65% 30.06 in 10.0 mi Calm Calm - N/A   Clear
6:53 PM 39.0 °F - 28.9 °F 67% 30.07 in 10.0 mi Calm Calm - N/A   Clear
7:53 PM 37.9 °F - 30.0 °F 73% 30.06 in 10.0 mi Calm Calm - N/A   Clear
8:53 PM 33.1 °F - 28.0 °F 82% 30.05 in 10.0 mi Calm Calm - N/A   Clear
9:53 PM 34.0 °F - 28.9 °F 82% 30.04 in 9.0 mi Calm Calm - N/A   Clear
10:53 PM 34.0 °F - 28.9 °F 82% 30.02 in 9.0 mi Calm Calm - N/A   Clear
11:53 PM 30.9 °F 26.2 °F 26.1 °F 82% 30.01 in 10.0 mi ESE 4.6 mph - N/A   Clear